[[{"header":{"parameterUnit":"m.s-1","parameterCategory":2,"la1":30.2992,"la2":30.254,"lo1":-89.0895,"lo2":-89.0443,"dy":0.0025,"dx":0.0025,"nx":19,"ny":19,"refTime":"2026-05-16T09:00:00:Z","depth":"0","parameterNumber":2,"parameterNumberName":"U-component_of_CURRENTS"},"data":[0,0,0,0.1701,0.1702,0.1776,0.1777,0.1851,0.1852,0,0,0,0,0,0,0,0,0,0,0,0.1671,0.1672,0.1701,0.1703,0.1776,0.1777,0.1851,0.1852,0,0,0,0,0,0,0,0,0,0,0,0.1671,0.1672,0.1673,0.1703,0.1776,0.1777,0.1851,0.1799,0,0,0,0,0,0,0,0,0,0,0.173,0.1701,0.1672,0.1673,0.1703,0.1776,0.1777,0.1797,0.1802,0.1813,0,0.1827,0,0.1845,0.1857,0.1857,0,0,0,0.1699,0.1697,0.1724,0.1673,0.1704,0.1776,0.1742,0.18,0.1806,0.182,0.1828,0.1831,0.1846,0.1857,0.1857,0.1944,0.1944,0,0,0.1695,0.1678,0.172,0.1728,0.1727,0.174,0.1744,0.1804,0.1807,0.1829,0.1833,0.1847,0.1857,0.1858,0.1943,0.1944,0,0,0,0.1686,0.1675,0.1701,0.1724,0.1742,0.1742,0.1747,0.1804,0.1815,0.1834,0.1848,0.1858,0.1859,0.1943,0.1943,0.1983,0,0,0,0.1683,0.167,0.1699,0.1689,0.1741,0.1776,0.1746,0.1811,0.1819,0.1848,0.1858,0.1859,0.1942,0.1943,0.1981,0.2046,0,0,0,0.1667,0.1668,0.168,0.1688,0.1723,0.1775,0.1789,0.1813,0.1827,0.1857,0.186,0.1942,0.1943,0.1979,0.2041,0.2201,0,0,0,0.1644,0.1658,0.1679,0.1702,0.1722,0.1776,0.1789,0.1828,0.1853,0.1858,0.1942,0.1943,0.1978,0.2039,0.2196,0.2255,0.2283,0,0,0.1647,0.1657,0.1672,0.1694,0.1738,0.1765,0.1823,0.186,0.1872,0.192,0.1922,0.1982,0.2041,0.22,0.231,0.2336,0,0,0,0.1664,0.1676,0.1694,0.1726,0.1768,0.183,0.1859,0.1895,0.1953,0.1894,0.199,0.2028,0.2127,0.2151,0.2172,0.2252,0.1948,0.1948,0.1947,0.1637,0.167,0.1699,0.1749,0.1789,0.1871,0.1941,0.1996,0.1977,0.2016,0.2063,0.222,0.2241,0.2259,0.2338,0.2043,0.2043,0.2043,0.2043,0.1641,0.1656,0.1708,0.1747,0.182,0.1878,0.2015,0.2049,0.2209,0.2127,0.2221,0.2194,0.2285,0.2361,0.2046,0.2045,0.2045,0.2045,0.2044,0.1612,0.1625,0.1656,0.1715,0.18,0.1897,0.2064,0.217,0.2275,0.2365,0.2464,0.2463,0.2537,0.2429,0.243,0.2431,0.2432,0.2433,0.2433,0.1562,0.1599,0.1613,0.1689,0.1734,0.1875,0.2115,0.2271,0.2502,0.2568,0.2568,0.2609,0.2341,0.2334,0.2448,0.2445,0.2444,0.2442,0.2441,0.1521,0.153,0.1556,0.1588,0.1721,0.1844,0.2091,0.245,0.2665,0.2799,0.2908,0.2697,0.2724,0.2705,0.2708,0.2913,0.2913,0.2913,0.2913,0.1472,0.1486,0.1506,0.1556,0.1673,0.1833,0.2078,0.2403,0.285,0.3057,0.3147,0.3032,0.3009,0.3045,0.3019,0.3025,0.3307,0.3307,0.3308,0.1436,0.1455,0.1453,0.1518,0.1638,0.182,0.1986,0.2287,0.2965,0.3329,0.3259,0.3243,0.3068,0.3026,0.3065,0.3022,0.3024,0,0]},{"header":{"parameterUnit":"m.s-1","parameterCategory":2,"la1":30.2992,"la2":30.254,"lo1":-89.0895,"lo2":-89.0443,"dy":0.0025,"dx":0.0025,"nx":19,"ny":19,"refTime":"2026-05-16T09:00:00:Z","depth":"0","parameterNumber":3,"parameterNumberName":"V-component_of_CURRENTS"},"data":[0,0,0,-0.0103,-0.0105,-0.0189,-0.0189,-0.0312,-0.0313,0,0,0,0,0,0,0,0,0,0,0,-0.0071,-0.0071,-0.0103,-0.0105,-0.0189,-0.0189,-0.0312,-0.0313,0,0,0,0,0,0,0,0,0,0,0,-0.0071,-0.0071,-0.0071,-0.0105,-0.0188,-0.0189,-0.0312,-0.0247,0,0,0,0,0,0,0,0,0,0,-0.0165,-0.0124,-0.0071,-0.0071,-0.0105,-0.0188,-0.0189,-0.0244,-0.0251,-0.0275,0,-0.0279,0,-0.0296,-0.0321,-0.0321,0,0,0,-0.0116,-0.0117,-0.0144,-0.0072,-0.0106,-0.0188,-0.0154,-0.0248,-0.0256,-0.0285,-0.0281,-0.0286,-0.0298,-0.0321,-0.0322,-0.0374,-0.0374,0,0,-0.0111,-0.0087,-0.0138,-0.0149,-0.0117,-0.0151,-0.0156,-0.0253,-0.0255,-0.0282,-0.0289,-0.0301,-0.0322,-0.0323,-0.0375,-0.0374,0,0,0,-0.009,-0.0084,-0.0108,-0.0143,-0.0156,-0.0153,-0.0159,-0.0251,-0.0259,-0.029,-0.0302,-0.0323,-0.0324,-0.0375,-0.0374,-0.0238,0,0,0,-0.0088,-0.0071,-0.0105,-0.0092,-0.0154,-0.0201,-0.0155,-0.0253,-0.0264,-0.0301,-0.0323,-0.0325,-0.0375,-0.0375,-0.0243,-0.011,0,0,0,-0.0069,-0.0069,-0.0076,-0.0091,-0.0123,-0.02,-0.0214,-0.0255,-0.0271,-0.0321,-0.0326,-0.0375,-0.0375,-0.0246,-0.012,0.0056,0,0,0,-0.0047,-0.0043,-0.0075,-0.0076,-0.0122,-0.0153,-0.0214,-0.0247,-0.0282,-0.0323,-0.0375,-0.0375,-0.0248,-0.0126,0.0049,0.021,0.0259,0,0,-0.0029,-0.004,-0.0041,-0.0072,-0.008,-0.0143,-0.014,-0.0213,-0.0282,-0.0348,-0.0349,-0.0241,-0.0121,0.0055,0.0247,0.0296,0,0,0,-0.0027,-0.0024,-0.0034,-0.0047,-0.0082,-0.0071,-0.016,-0.0182,-0.0224,-0.03,-0.0266,-0.0193,-0.0087,-0.0008,0.0029,-0.0193,-0.0371,-0.0372,-0.0372,0.003,0.0009,0.0021,-0.0002,-0.0007,-0.0035,-0.0016,-0.0064,-0.0173,-0.0165,-0.0104,0.01,0.0179,0.0211,-0.0025,-0.0169,-0.0169,-0.0168,-0.0168,0.0078,0.0096,0.0085,0.0095,0.0105,0.0119,0.0122,0.0088,0.0152,-0.0,0.0095,0.0103,0.0261,-0.0005,-0.016,-0.0161,-0.0162,-0.0163,-0.0164,0.013,0.0143,0.0143,0.0185,0.026,0.0267,0.0464,0.0417,0.0336,0.0416,0.053,0.0529,0.0324,0.0467,0.0468,0.0469,0.0471,0.0472,0.0472,0.0198,0.0198,0.0262,0.0301,0.0386,0.0551,0.0689,0.0796,0.0849,0.0758,0.0758,0.0372,0.0296,0.0305,0.0493,0.0489,0.0487,0.0485,0.0483,0.0279,0.0283,0.0401,0.0481,0.0705,0.0982,0.1079,0.1342,0.1391,0.1452,0.087,0.0939,0.0943,0.091,0.0933,0.1274,0.1274,0.1274,0.1274,0.0351,0.0351,0.0574,0.0773,0.1019,0.1218,0.165,0.1789,0.1524,0.1296,0.1063,0.0864,0.0842,0.0823,0.0792,0.0804,0.1105,0.1103,0.1103,0.0426,0.0497,0.0704,0.0901,0.1186,0.1515,0.1911,0.2028,0.1502,0.106,0.0724,0.0732,0.0386,0.037,0.0285,0.0259,0.0258,0,0]}],[{"header":{"parameterUnit":"m.s-1","parameterCategory":2,"la1":30.2992,"la2":30.254,"lo1":-89.0895,"lo2":-89.0443,"dy":0.0025,"dx":0.0025,"nx":19,"ny":19,"refTime":"2026-05-16T09:00:00:Z","depth":"2","parameterNumber":2,"parameterNumberName":"U-component_of_CURRENTS"},"data":[0,0,0,0.1741,0.1742,0.1817,0.1817,0.1894,0.1895,0,0,0,0,0,0,0,0,0,0,0,0.1711,0.1712,0.1741,0.1743,0.1817,0.1817,0.1894,0.1895,0,0,0,0,0,0,0,0,0,0,0,0.1711,0.1712,0.1712,0.1743,0.1817,0.1817,0.1894,0.1841,0,0,0,0,0,0,0,0,0,0,0.1771,0.1742,0.1712,0.1712,0.1743,0.1817,0.1817,0.1839,0.1845,0.1857,0,0.187,0,0.1888,0.19,0.19,0,0,0,0.1739,0.1737,0.1765,0.1712,0.1744,0.1816,0.1782,0.1842,0.1849,0.1864,0.1872,0.1875,0.1889,0.19,0.1901,0.199,0.199,0,0,0.1735,0.1718,0.1761,0.1769,0.1767,0.178,0.1785,0.1846,0.1849,0.1872,0.1877,0.1891,0.1901,0.1901,0.1989,0.199,0,0,0,0.1726,0.1715,0.1741,0.1765,0.1783,0.1782,0.1788,0.1846,0.1858,0.1878,0.1891,0.1901,0.1902,0.1989,0.199,0.203,0,0,0,0.1723,0.171,0.1739,0.1728,0.1781,0.1817,0.1786,0.1853,0.1861,0.1891,0.1901,0.1903,0.1989,0.1989,0.2028,0.2093,0,0,0,0.1707,0.1708,0.1719,0.1728,0.1763,0.1816,0.1831,0.1855,0.1869,0.19,0.1903,0.1988,0.1989,0.2026,0.2088,0.2249,0,0,0,0.1683,0.1697,0.1719,0.1742,0.1762,0.1817,0.183,0.187,0.1896,0.1902,0.1989,0.199,0.2025,0.2085,0.2244,0.2243,0.2266,0,0,0.1686,0.1697,0.1712,0.1734,0.1779,0.1806,0.1866,0.1903,0.1916,0.1965,0.1968,0.2029,0.2088,0.2248,0.2298,0.232,0,0,0,0.1704,0.1716,0.1735,0.1767,0.181,0.1873,0.1902,0.1939,0.1998,0.1938,0.2037,0.2075,0.2174,0.2162,0.2179,0.1994,0.1994,0.1994,0.1994,0.1677,0.171,0.174,0.179,0.1832,0.1916,0.1986,0.2043,0.2024,0.2063,0.2111,0.2269,0.2251,0.2266,0.2091,0.2091,0.2091,0.2091,0.2091,0.168,0.1695,0.1749,0.1789,0.1864,0.1923,0.2063,0.2097,0.2258,0.2176,0.227,0.2208,0.2287,0.2095,0.2094,0.2093,0.2093,0.2093,0.2093,0.1651,0.1664,0.1696,0.1757,0.1846,0.1945,0.2116,0.2222,0.2325,0.2416,0.2474,0.2472,0.2358,0.2479,0.248,0.2481,0.2482,0.2483,0.2483,0.16,0.1637,0.1654,0.1733,0.1782,0.1927,0.217,0.2323,0.2526,0.2572,0.2573,0.2403,0.2391,0.2383,0.2498,0.2496,0.2494,0.2492,0.2491,0.1559,0.1569,0.16,0.1636,0.178,0.1944,0.2176,0.2517,0.27,0.2819,0.2686,0.2676,0.2696,0.2679,0.2681,0.2867,0.2867,0.2867,0.2867,0.1511,0.1525,0.1556,0.1616,0.1748,0.1954,0.2212,0.2368,0.26,0.2628,0.2636,0.2466,0.2459,0.2455,0.2443,0.2435,0.2558,0.2556,0.2555,0.1476,0.1499,0.1507,0.1584,0.1725,0.1984,0.2161,0.211,0.2254,0.253,0.2445,0.2873,0.2641,0.2622,0.2626,0.2603,0.2593,0,0]},{"header":{"parameterUnit":"m.s-1","parameterCategory":2,"la1":30.2992,"la2":30.254,"lo1":-89.0895,"lo2":-89.0443,"dy":0.0025,"dx":0.0025,"nx":19,"ny":19,"refTime":"2026-05-16T09:00:00:Z","depth":"2","parameterNumber":3,"parameterNumberName":"V-component_of_CURRENTS"},"data":[0,0,0,-0.0147,-0.0148,-0.0231,-0.0232,-0.0356,-0.0357,0,0,0,0,0,0,0,0,0,0,0,-0.0115,-0.0115,-0.0147,-0.0148,-0.0231,-0.0232,-0.0356,-0.0357,0,0,0,0,0,0,0,0,0,0,0,-0.0115,-0.0115,-0.0115,-0.0148,-0.0231,-0.0232,-0.0356,-0.0291,0,0,0,0,0,0,0,0,0,0,-0.0209,-0.0168,-0.0115,-0.0115,-0.0149,-0.0231,-0.0232,-0.0288,-0.0295,-0.032,0,-0.0324,0,-0.0341,-0.0365,-0.0365,0,0,0,-0.0159,-0.0162,-0.0188,-0.0115,-0.0149,-0.0231,-0.0197,-0.0292,-0.03,-0.033,-0.0326,-0.0331,-0.0343,-0.0366,-0.0366,-0.0419,-0.0419,0,0,-0.0155,-0.0131,-0.0182,-0.0193,-0.016,-0.0194,-0.0199,-0.0297,-0.0299,-0.0326,-0.0334,-0.0345,-0.0367,-0.0367,-0.0419,-0.0419,0,0,0,-0.0134,-0.0127,-0.0151,-0.0187,-0.02,-0.0196,-0.0202,-0.0295,-0.0303,-0.0335,-0.0347,-0.0367,-0.0369,-0.0419,-0.0419,-0.0285,0,0,0,-0.0132,-0.0115,-0.0149,-0.0136,-0.0197,-0.0245,-0.0198,-0.0296,-0.0308,-0.0346,-0.0367,-0.037,-0.042,-0.0419,-0.029,-0.0165,0,0,0,-0.0113,-0.0113,-0.012,-0.0134,-0.0166,-0.0243,-0.0258,-0.0299,-0.0315,-0.0366,-0.037,-0.042,-0.0419,-0.0293,-0.0174,-0.0004,0,0,0,-0.009,-0.0086,-0.0119,-0.0119,-0.0165,-0.0196,-0.0258,-0.029,-0.0326,-0.0368,-0.042,-0.0419,-0.0295,-0.018,-0.0011,-0.0246,-0.023,0,0,-0.0072,-0.0083,-0.0084,-0.0115,-0.0123,-0.0186,-0.0184,-0.0257,-0.0326,-0.0392,-0.0394,-0.0288,-0.0175,-0.0005,-0.0206,-0.0191,0,0,0,-0.0069,-0.0067,-0.0076,-0.0089,-0.0124,-0.0115,-0.0203,-0.0226,-0.027,-0.0343,-0.0312,-0.0244,-0.014,-0.03,-0.0289,-0.0416,-0.0416,-0.0416,-0.0416,-0.0011,-0.0033,-0.002,-0.0044,-0.005,-0.008,-0.0064,-0.0113,-0.0218,-0.0211,-0.0156,0.0044,-0.0133,-0.0125,-0.0216,-0.0215,-0.0215,-0.0214,-0.0214,0.0036,0.0054,0.0042,0.0052,0.0059,0.0071,0.0068,0.0034,0.0093,-0.0054,0.0039,-0.0179,-0.0104,-0.0204,-0.0206,-0.0207,-0.0208,-0.0209,-0.021,0.0089,0.0101,0.0101,0.014,0.0211,0.0214,0.0395,0.0349,0.0271,0.0346,0.0198,0.019,0.0204,0.0398,0.04,0.0401,0.0402,0.0403,0.0404,0.0156,0.0156,0.0216,0.0253,0.0331,0.0486,0.0612,0.0697,0.0582,0.038,0.0377,0.0253,0.0233,0.024,0.0424,0.042,0.0418,0.0416,0.0415,0.0235,0.0238,0.0349,0.0423,0.0629,0.0775,0.0895,0.0876,0.0905,0.0788,0.0389,0.0382,0.0347,0.0329,0.0337,0.0538,0.0538,0.0538,0.0538,0.0303,0.0303,0.0511,0.0693,0.0911,0.0958,0.1012,0.0865,0.0632,0.0414,0.0421,0.0173,0.0168,0.011,0.0097,0.0096,0.0235,0.0235,0.0236,0.0374,0.044,0.0633,0.0813,0.1057,0.112,0.0957,0.0678,0.0382,0.0237,0.0509,0.049,0.0124,0.0118,0.0018,0.0003,-0.0004,0,0]}],[{"header":{"parameterUnit":"m.s-1","parameterCategory":2,"la1":30.2992,"la2":30.254,"lo1":-89.0895,"lo2":-89.0443,"dy":0.0025,"dx":0.0025,"nx":19,"ny":19,"refTime":"2026-05-16T09:00:00:Z","depth":"4","parameterNumber":2,"parameterNumberName":"U-component_of_CURRENTS"},"data":[0,0,0,0.1169,0.1173,0.134,0.1341,0.1469,0.147,0,0,0,0,0,0,0,0,0,0,0,0.1105,0.1107,0.1169,0.1173,0.134,0.1341,0.1468,0.147,0,0,0,0,0,0,0,0,0,0,0,0.1105,0.1106,0.1108,0.1174,0.134,0.1341,0.1468,0.1362,0,0,0,0,0,0,0,0,0,0,0.121,0.1175,0.1106,0.1108,0.1175,0.134,0.1341,0.1358,0.1369,0.1371,0,0.1404,0,0.1445,0.1477,0.1477,0,0,0,0.1167,0.1166,0.1205,0.1108,0.1177,0.1339,0.1263,0.1364,0.1377,0.1385,0.1406,0.1412,0.1447,0.1478,0.1478,0.1609,0.1609,0,0,0.1158,0.114,0.1197,0.1213,0.1229,0.1258,0.1268,0.1373,0.139,0.1407,0.1416,0.1449,0.1478,0.1479,0.1608,0.1609,0,0,0,0.1136,0.1133,0.1172,0.1206,0.1247,0.1263,0.1275,0.1386,0.1398,0.1418,0.1451,0.1479,0.148,0.1607,0.1608,0.1663,0,0,0,0.113,0.1121,0.1167,0.1159,0.1245,0.1333,0.1285,0.139,0.1404,0.145,0.1479,0.1481,0.1607,0.1608,0.166,0.1684,0,0,0,0.1096,0.1118,0.1138,0.1158,0.1233,0.1333,0.1351,0.1394,0.1424,0.1477,0.1482,0.1606,0.1608,0.1657,0.168,0.1717,0,0,0,0.1069,0.11,0.1138,0.1184,0.1232,0.1328,0.1351,0.143,0.1477,0.1479,0.1607,0.1608,0.1657,0.1677,0.1715,0.1502,0,0,0,0.1084,0.1102,0.1125,0.1163,0.1245,0.1304,0.1406,0.1475,0.1499,0.1563,0.1567,0.1661,0.168,0.1717,0.1591,0,0,0,0,0.1113,0.1135,0.1162,0.1229,0.1301,0.1395,0.1475,0.1521,0.1613,0.1538,0.1676,0.1686,0.1707,0.1576,0.1615,0.1615,0.1615,0.1615,0.1615,0.1097,0.1144,0.1198,0.1273,0.1344,0.1471,0.1546,0.1628,0.1646,0.1702,0.1742,0.1822,0.1686,0.1753,0.1753,0.1754,0.1754,0.1754,0.1754,0.111,0.1137,0.1225,0.1301,0.1407,0.1516,0.165,0.1699,0.1821,0.1811,0.183,0.1656,0.176,0.1759,0.1758,0.1757,0.1757,0.1757,0.1756,0.108,0.1102,0.1176,0.1302,0.1435,0.1566,0.1675,0.1783,0.187,0.1914,0.1779,0.1865,0.1847,0.1935,0.1936,0.1936,0.1936,0.1936,0.1937,0.1015,0.1088,0.1174,0.1305,0.1396,0.1528,0.1717,0.1778,0.1879,0.1825,0.1945,0.1883,0.1877,0.1858,0.1941,0.194,0.194,0.1939,0.1939,0.0975,0.1032,0.1134,0.1224,0.1387,0.1437,0.1639,0.1705,0.1769,0.1751,0.1766,0.1773,0.1733,0.1731,0.1704,0.1745,0.1742,0.174,0,0.0945,0.0978,0.111,0.1196,0.1261,0.1367,0.1416,0.151,0.159,0.1543,0.174,0.1751,0.1756,0.1705,0.17,0.1664,0,0,0,0.0939,0.098,0.1044,0.113,0.1178,0.1251,0.1408,0.1398,0.1598,0.1577,0.1679,0.1695,0.1816,0.1955,0.1911,0.1904,0.187,0,0]},{"header":{"parameterUnit":"m.s-1","parameterCategory":2,"la1":30.2992,"la2":30.254,"lo1":-89.0895,"lo2":-89.0443,"dy":0.0025,"dx":0.0025,"nx":19,"ny":19,"refTime":"2026-05-16T09:00:00:Z","depth":"4","parameterNumber":3,"parameterNumberName":"V-component_of_CURRENTS"},"data":[0,0,0,-0.0138,-0.014,-0.0214,-0.0214,-0.0309,-0.031,0,0,0,0,0,0,0,0,0,0,0,-0.0111,-0.0111,-0.0138,-0.014,-0.0214,-0.0214,-0.0309,-0.031,0,0,0,0,0,0,0,0,0,0,0,-0.0111,-0.0111,-0.0111,-0.014,-0.0214,-0.0214,-0.0308,-0.0254,0,0,0,0,0,0,0,0,0,0,-0.0183,-0.0158,-0.0111,-0.0111,-0.014,-0.0214,-0.0214,-0.0252,-0.0258,-0.0273,0,-0.0279,0,-0.0294,-0.0315,-0.0315,0,0,0,-0.0148,-0.0153,-0.0169,-0.0111,-0.0141,-0.0213,-0.0183,-0.0255,-0.0262,-0.028,-0.028,-0.0284,-0.0296,-0.0316,-0.0316,-0.032,-0.032,0,0,-0.0144,-0.0131,-0.0164,-0.0173,-0.0154,-0.018,-0.0185,-0.0259,-0.0266,-0.0281,-0.0286,-0.0297,-0.0316,-0.0317,-0.0321,-0.032,0,0,0,-0.0126,-0.0128,-0.0143,-0.0169,-0.0181,-0.0182,-0.0187,-0.0263,-0.0266,-0.0287,-0.0298,-0.0317,-0.0318,-0.0321,-0.0321,-0.0286,0,0,0,-0.0124,-0.0117,-0.014,-0.0135,-0.0179,-0.0224,-0.0189,-0.0261,-0.027,-0.0298,-0.0317,-0.0319,-0.0322,-0.0321,-0.0288,-0.0308,0,0,0,-0.0109,-0.0116,-0.0121,-0.0133,-0.0162,-0.0223,-0.0231,-0.0263,-0.0276,-0.0315,-0.0319,-0.0323,-0.0321,-0.029,-0.031,-0.0403,0,0,0,-0.0097,-0.0084,-0.0121,-0.0106,-0.0161,-0.0163,-0.0231,-0.0251,-0.0277,-0.0317,-0.0322,-0.0321,-0.0291,-0.0311,-0.0403,-0.0262,0,0,0,-0.0067,-0.008,-0.0068,-0.0102,-0.0086,-0.0154,-0.0148,-0.022,-0.0261,-0.0301,-0.0301,-0.0287,-0.031,-0.0403,-0.018,0,0,0,0,-0.0049,-0.0043,-0.0042,-0.0047,-0.0064,-0.0104,-0.0156,-0.0191,-0.024,-0.0271,-0.0269,-0.0285,-0.0345,-0.0259,-0.0314,-0.0314,-0.0314,-0.0314,-0.0314,-0.0004,-0.0006,0.0009,-0.0001,-0.001,-0.0065,-0.0111,-0.0169,-0.0189,-0.0201,-0.0241,-0.0268,-0.0166,-0.0205,-0.0205,-0.0205,-0.0205,-0.0205,-0.0205,0.0039,0.0041,0.0032,0.0044,0.0007,-0.0004,-0.0083,-0.0121,-0.0215,-0.0194,-0.0255,-0.0204,-0.0201,-0.0201,-0.0202,-0.0203,-0.0203,-0.0203,-0.0203,0.0055,0.0053,0.0061,0.0062,0.0036,-0.0001,-0.0075,-0.014,-0.0211,-0.0257,-0.0234,-0.0289,-0.0317,-0.0301,-0.0302,-0.0302,-0.0303,-0.0303,-0.0303,0.0057,0.0066,0.006,0.0065,0.0042,-0.0004,-0.0092,-0.0149,-0.0228,-0.0213,-0.0277,-0.0304,-0.03,-0.0325,-0.031,-0.0309,-0.0308,-0.0307,-0.0307,0.0054,0.0057,0.0034,0.0018,-0.0019,-0.0039,-0.0099,-0.0132,-0.0216,-0.0243,-0.0218,-0.022,-0.0253,-0.0253,-0.0277,-0.0248,-0.0246,-0.0244,0,0.0038,0.0045,-0.0034,-0.0084,-0.0097,-0.0093,-0.0076,-0.0114,-0.0195,-0.0183,-0.0308,-0.0284,-0.0282,-0.0322,-0.0319,-0.0348,0,0,0,0.0015,-0.0017,-0.0104,-0.0149,-0.0157,-0.01,-0.0081,-0.0071,-0.015,-0.0114,-0.02,-0.0212,-0.0218,-0.0331,-0.039,-0.0386,-0.0431,0,0]}]]